Location: Acts Church of Fort Worth
(32.6786°N, 97.2668°W)
Time: 08:19:23
(UTC+00:00)

Meteosat 1 Rocket2 - Pass Details

Date: 18 January 2026
Orbit: 484 x 2267 km, 28.3° (Epoch: 9 February)

Event Time Altitude Azimuth Distance (km) Brightness Sun altitude
Rises 01:57:35 0° 255° (WSW) 2,609 7.6 -27.0°
Reaches altitude 10° 01:59:36 10° 250° (WSW) 1,809 6.4 -27.4°
Enters shadow 02:02:33 42° 214° (SW) 892 4.0 -28.0°
